Location: Kalberh�ni
(46.4610°N, 7.2453°E)
Time: 05:56:56
(UTC+00:00)

Cosmos 2333 Rocket - Pass Details

Date: 31 October 2021
Orbit: 837 x 865 km, 70.8° (Epoch: 05 December)

Event Time Altitude Azimuth Distance (km) Brightness Sun altitude
Exits shadow 02:11:42 11° 118° (ESE) 2,456 4.9 -41.0°
Drops below altitude 10° 02:11:52 10° 119° (ESE) 2,512 4.9 -40.9°
Sets 02:14:30 0° 128° (SE) 3,437 5.7 -40.5°
